TimeEDT,TemperatureF,Dew PointF,Humidity,Sea Level PressureIn,VisibilityMPH,Wind Direction,Wind SpeedMPH,Gust SpeedMPH,PrecipitationIn,Events,Conditions,WindDirDegrees,DateUTC
12:15 AM,37.4,35.6,93,29.93,10.0,WSW,5.8,-,N/A,,Clear,240,2012-11-02 04:15:00
12:35 AM,37.4,33.8,87,29.93,10.0,SW,6.9,-,N/A,,Clear,230,2012-11-02 04:35:00
12:55 AM,39.2,33.8,81,29.93,10.0,WSW,6.9,-,N/A,,Clear,240,2012-11-02 04:55:00
1:15 AM,42.8,33.8,70,29.93,10.0,West,5.8,-,N/A,,Clear,260,2012-11-02 05:15:00
1:35 AM,39.2,33.8,81,29.93,10.0,West,5.8,-,N/A,,Clear,260,2012-11-02 05:35:00
1:55 AM,39.2,33.8,81,29.93,10.0,West,5.8,-,N/A,,Clear,260,2012-11-02 05:55:00
2:15 AM,39.2,33.8,81,29.93,10.0,West,6.9,-,N/A,,Clear,270,2012-11-02 06:15:00
2:35 AM,39.2,33.8,81,29.93,10.0,West,4.6,-,N/A,,Clear,260,2012-11-02 06:35:00
2:55 AM,37.4,33.8,87,29.94,10.0,West,5.8,-,N/A,,Clear,260,2012-11-02 06:55:00
3:15 AM,41.0,33.8,76,29.94,10.0,WNW,4.6,-,N/A,,Clear,290,2012-11-02 07:15:00
3:55 AM,41.0,33.8,76,29.94,10.0,West,4.6,-,N/A,,Clear,280,2012-11-02 07:55:00
4:15 AM,41.0,33.8,76,29.94,10.0,West,5.8,-,N/A,,Clear,270,2012-11-02 08:15:00
4:35 AM,41.0,33.8,76,29.94,10.0,West,5.8,-,N/A,,Clear,280,2012-11-02 08:35:00
4:55 AM,39.2,32.0,75,29.95,10.0,West,4.6,-,N/A,,Clear,280,2012-11-02 08:55:00
5:15 AM,39.2,32.0,75,29.96,10.0,West,3.5,-,N/A,,Clear,270,2012-11-02 09:15:00
5:35 AM,35.6,32.0,87,29.96,10.0,WSW,3.5,-,N/A,,Clear,240,2012-11-02 09:35:00
5:55 AM,35.6,32.0,87,29.96,10.0,Calm,Calm,-,N/A,,Clear,0,2012-11-02 09:55:00
6:15 AM,35.6,33.8,93,29.96,10.0,Calm,Calm,-,N/A,,Clear,0,2012-11-02 10:15:00
6:35 AM,32.0,32.0,100,29.97,10.0,Calm,Calm,-,N/A,,Clear,0,2012-11-02 10:35:00
6:55 AM,33.8,33.8,100,29.96,10.0,Calm,Calm,-,N/A,,Clear,0,2012-11-02 10:55:00
7:35 AM,33.8,33.8,100,29.98,10.0,WSW,3.5,-,N/A,,Clear,240,2012-11-02 11:35:00
7:55 AM,33.8,33.8,100,29.99,10.0,Calm,Calm,-,N/A,,Clear,0,2012-11-02 11:55:00
8:15 AM,35.6,35.6,100,29.99,10.0,WSW,3.5,-,N/A,,Clear,240,2012-11-02 12:15:00
9:55 AM,51.8,37.4,58,30.00,10.0,WSW,4.6,-,N/A,,Clear,250,2012-11-02 13:55:00
10:35 AM,57.2,37.4,48,29.99,10.0,West,6.9,-,N/A,,Scattered Clouds,270,2012-11-02 14:35:00
10:55 AM,60.8,37.4,42,29.99,10.0,WSW,5.8,-,N/A,,Scattered Clouds,250,2012-11-02 14:55:00
11:15 AM,60.8,35.6,39,29.99,10.0,West,9.2,-,N/A,,Scattered Clouds,260,2012-11-02 15:15:00
11:35 AM,62.6,35.6,37,29.98,10.0,West,9.2,-,N/A,,Scattered Clouds,260,2012-11-02 15:35:00
11:55 AM,64.4,37.4,37,29.96,10.0,WSW,15.0,-,N/A,,Clear,240,2012-11-02 15:55:00
12:15 PM,66.2,37.4,35,29.95,10.0,WSW,10.4,-,N/A,,Clear,250,2012-11-02 16:15:00
12:35 PM,68.0,39.2,35,29.94,10.0,WSW,9.2,18.4,N/A,,Clear,250,2012-11-02 16:35:00
12:55 PM,68.0,41.0,37,29.93,10.0,WSW,15.0,21.9,N/A,,Clear,240,2012-11-02 16:55:00
1:15 PM,68.0,41.0,37,29.92,10.0,WSW,9.2,-,N/A,,Clear,250,2012-11-02 17:15:00
1:35 PM,69.8,41.0,35,29.90,10.0,WSW,17.3,-,N/A,,Clear,250,2012-11-02 17:35:00
1:55 PM,71.6,42.8,35,29.89,10.0,West,13.8,25.3,N/A,,Clear,260,2012-11-02 17:55:00
2:15 PM,71.6,42.8,35,29.88,10.0,WSW,16.1,24.2,N/A,,Clear,240,2012-11-02 18:15:00
2:35 PM,71.6,42.8,35,29.87,10.0,SW,17.3,20.7,N/A,,Clear,230,2012-11-02 18:35:00
2:55 PM,71.6,42.8,35,29.86,10.0,SW,16.1,21.9,N/A,,Clear,230,2012-11-02 18:55:00
3:15 PM,71.6,42.8,35,29.85,10.0,WSW,12.7,19.6,N/A,,Clear,250,2012-11-02 19:15:00
3:35 PM,71.6,42.8,35,29.84,10.0,WSW,16.1,19.6,N/A,,Clear,240,2012-11-02 19:35:00
3:55 PM,71.6,42.8,35,29.84,10.0,WSW,13.8,21.9,N/A,,Clear,240,2012-11-02 19:55:00
4:15 PM,71.6,42.8,35,29.84,10.0,WSW,11.5,17.3,N/A,,Clear,250,2012-11-02 20:15:00
4:55 PM,71.6,42.8,35,29.85,10.0,WSW,12.7,-,N/A,,Clear,250,2012-11-02 20:55:00
5:15 PM,69.8,44.6,40,29.85,10.0,WSW,10.4,-,N/A,,Clear,250,2012-11-02 21:15:00
5:35 PM,69.8,44.6,40,29.86,10.0,WSW,8.1,-,N/A,,Clear,240,2012-11-02 21:35:00
5:55 PM,68.0,44.6,43,29.86,10.0,WSW,5.8,-,N/A,,Clear,240,2012-11-02 21:55:00
6:15 PM,62.6,46.4,55,29.87,10.0,SW,4.6,-,N/A,,Clear,230,2012-11-02 22:15:00
6:35 PM,59.0,48.2,67,29.88,10.0,South,5.8,-,N/A,,Clear,190,2012-11-02 22:35:00
6:55 PM,59.0,50.0,72,29.89,10.0,SSW,3.5,-,N/A,,Clear,210,2012-11-02 22:55:00
7:15 PM,55.4,51.8,88,29.89,10.0,SW,5.8,-,N/A,,Clear,220,2012-11-02 23:15:00
7:35 PM,55.4,51.8,88,29.90,10.0,SSW,3.5,-,N/A,,Clear,210,2012-11-02 23:35:00
7:55 PM,55.4,51.8,88,29.91,10.0,SW,3.5,-,N/A,,Clear,220,2012-11-02 23:55:00
8:35 PM,53.6,51.8,94,29.92,10.0,SSW,3.5,-,N/A,,Clear,210,2012-11-03 00:35:00
8:55 PM,55.4,51.8,88,29.92,10.0,SW,4.6,-,N/A,,Clear,230,2012-11-03 00:55:00
9:15 PM,53.6,51.8,94,29.93,10.0,WSW,4.6,-,N/A,,Clear,240,2012-11-03 01:15:00
9:35 PM,53.6,51.8,94,29.93,10.0,SW,5.8,-,N/A,,Clear,230,2012-11-03 01:35:00
9:55 PM,55.4,51.8,88,29.94,10.0,WSW,3.5,-,N/A,,Clear,250,2012-11-03 01:55:00
10:35 PM,50.0,50.0,100,29.94,10.0,WSW,4.6,-,N/A,,Clear,240,2012-11-03 02:35:00
10:55 PM,51.8,51.8,100,29.94,10.0,WSW,3.5,-,N/A,,Clear,240,2012-11-03 02:55:00
11:15 PM,48.2,48.2,100,29.95,10.0,North,13.8,17.3,N/A,,Clear,350,2012-11-03 03:15:00
11:35 PM,53.6,50.0,88,29.95,10.0,Calm,Calm,-,N/A,,Clear,0,2012-11-03 03:35:00
11:55 PM,53.6,50.0,88,29.95,10.0,Calm,Calm,-,N/A,,Clear,0,2012-11-03 03:55:00